TimeAKDT,TemperatureF,Dew PointF,Humidity,Sea Level PressureIn,VisibilityMPH,Wind Direction,Wind SpeedMPH,Gust SpeedMPH,PrecipitationIn,Events,Conditions,WindDirDegrees,DateUTC
12:56 AM,57.9,45.0,62,29.70,10.0,Calm,Calm,-,N/A,,Clear,0,2013-06-23 08:56:00
1:56 AM,53.1,45.0,74,29.71,6.0,Calm,Calm,-,N/A,,Haze,0,2013-06-23 09:56:00
2:56 AM,54.0,43.0,66,29.71,10.0,Calm,Calm,-,N/A,,Clear,0,2013-06-23 10:56:00
3:56 AM,48.9,42.1,77,29.71,10.0,Calm,Calm,-,N/A,,Clear,0,2013-06-23 11:56:00
4:56 AM,48.9,39.9,71,29.71,10.0,Calm,Calm,-,N/A,,Clear,0,2013-06-23 12:56:00
5:56 AM,52.0,41.0,66,29.71,10.0,Calm,Calm,-,N/A,,Clear,0,2013-06-23 13:56:00
6:56 AM,57.0,41.0,55,29.71,10.0,Calm,Calm,-,N/A,,Clear,0,2013-06-23 14:56:00
7:56 AM,61.0,42.1,50,29.70,10.0,East,3.5,-,N/A,,Clear,90,2013-06-23 15:56:00
8:56 AM,66.0,42.1,42,29.69,10.0,Calm,Calm,-,N/A,,Clear,0,2013-06-23 16:56:00
9:56 AM,70.0,41.0,35,29.68,10.0,Calm,Calm,-,N/A,,Clear,0,2013-06-23 17:56:00
10:56 AM,73.0,44.1,35,29.67,10.0,SE,4.6,-,N/A,,Clear,130,2013-06-23 18:56:00
11:56 AM,75.0,44.1,33,29.65,10.0,Calm,Calm,-,N/A,,Clear,0,2013-06-23 19:56:00
12:56 PM,78.1,42.1,28,29.63,10.0,Calm,Calm,-,N/A,,Clear,0,2013-06-23 20:56:00
1:56 PM,80.1,37.0,21,29.62,10.0,Variable,3.5,-,N/A,,Clear,0,2013-06-23 21:56:00
2:56 PM,82.0,28.0,14,29.61,10.0,Variable,4.6,-,N/A,,Clear,0,2013-06-23 22:56:00
3:56 PM,82.9,28.0,14,29.60,10.0,NNE,8.1,-,N/A,,Clear,20,2013-06-23 23:56:00
4:56 PM,82.9,28.0,14,29.58,10.0,SW,8.1,-,N/A,,Clear,230,2013-06-24 00:56:00
5:56 PM,82.9,30.9,15,29.57,10.0,SE,4.6,-,N/A,,Clear,140,2013-06-24 01:56:00
6:56 PM,82.9,32.0,16,29.56,10.0,Variable,4.6,-,N/A,,Clear,0,2013-06-24 02:56:00
7:56 PM,82.0,42.1,24,29.57,10.0,NE,13.8,17.3,N/A,,Clear,40,2013-06-24 03:56:00
8:56 PM,80.1,45.0,29,29.58,10.0,NNE,6.9,-,N/A,,Clear,20,2013-06-24 04:56:00
9:56 PM,78.1,44.1,30,29.58,10.0,NE,6.9,-,N/A,,Clear,50,2013-06-24 05:56:00
10:56 PM,75.9,44.1,32,29.59,10.0,NE,6.9,-,N/A,,Clear,40,2013-06-24 06:56:00
11:56 PM,73.0,43.0,34,29.59,10.0,NE,3.5,-,N/A,,Clear,50,2013-06-24 07:56:00